User: anonymous
Location: Caltech
(34.1382°N, 118.1253°W)
Time: 18:34:26
(UTC-07:00)
Language:

Cosmos 1937 Rocket - Orbit

View from above orbital plane
View from above orbital plane
View from above satellite
View from above satellite

Ground track
Ground track

The orbit data is extracted from the following two-line orbital elements,

1 19039U 88029B   14205.17126830  .00000045  00000-0  23487-4 0   807
2 19039 074.0482 089.2267 0023617 167.3010 309.9955 14.38014396378603
Epoch (UTC): 24 July 2014 04:06:37
Eccentricity: 0.0023617
inclination: 74.0482°
perigee height: 748 km
apogee height: 782 km
right ascension of ascending node: 89.2267°
argument of perigee: 167.3010°
revolutions per day: 14.38014396
mean anomaly at epoch: 309.9955°
orbit number at epoch: 37860

The dashed part of the orbit path shows where the satellite is in the earth's shadow,  

DLR